Soldotna, AK

2:16 AM AKST on February 22, 2017 (GMT -0900)
Soldotna

Weather History for PASX - May, 2014

Change the Weather History Date:

Wednesday, May 21, 2014

  Actual Average Record
Temperature  
Mean Temperature 44 °F -  
Max Temperature 59 °F 53 °F 75 °F (2002)
Min Temperature 30 °F 36 °F 26 °F (1985)
Degree Days  
Heating Degree Days 20    
Moisture  
Dew Point 26 °F    
Average Humidity 50    
Maximum Humidity 80    
Minimum Humidity 29    
Precipitation  
Precipitation 0.00 in - - ()
Sea Level Pressure  
Sea Level Pressure 29.84 in    
Wind  
Wind Speed 2 mph (NE)    
Max Wind Speed 10 mph    
Max Gust Speed -    
Visibility 8 miles    
Events      
Averages and records for this station are not official NWS values.
T = Trace of Precipitation, MM = Missing Value Source: NWS Daily Summary

Daily Weather History Graph

Daily Weather History Graph

Search for Another Location

Airport or City:

Trip Planner

Search our weather history database for the weather conditions in past years. The results will help you decide how hot, cold, wet, or windy it might be!

Date:

Astronomy

May. 21, 2014 Rise Set
Actual Time 5:08 AM AKDT 10:54 PM AKDT
Civil Twilight 3:55 AM AKDT 12:08 AM AKDT
Nautical Twilight 2:33 AM AKDT Sun does not rise
Astronomical Twilight Sun does not rise Sun does not rise
Moon 3:02 AM AKDT (5/21) 1:48 PM AKDT (5/21)
Length of Visible Light 20h 12m
Length of Day
17h 45m
Waning Gibbous, 47% of the Moon is Illuminated
May 21
Waning Gibbous
May 28
New
Jun 5
First Quarter
Jun 12
Full
Jun 19
Last Quarter

Hourly Weather History & Observations

Time (AKDT) Temp. Windchill Dew Point Humidity Pressure Visibility Wind Dir Wind Speed Gust Speed Precip Events Conditions
12:16 AM 39.2 °F - 23.0 °F 52% 29.89 in 10.0 mi Calm Calm - N/A   Clear
12:36 AM 37.4 °F - 23.0 °F 56% 29.89 in 10.0 mi Calm Calm - N/A   Clear
12:56 AM 37.4 °F - 24.8 °F 60% 29.89 in 10.0 mi Calm Calm - N/A   Clear
1:16 AM 35.6 °F - 24.8 °F 65% 29.89 in 10.0 mi Calm Calm - N/A   Clear
1:36 AM 35.6 °F 32.8 °F 23.0 °F 60% 29.88 in 10.0 mi East 3.5 mph - N/A   Clear
1:56 AM 35.6 °F 32.8 °F 24.8 °F 65% 29.89 in 10.0 mi ENE 3.5 mph - N/A   Clear
2:16 AM 35.6 °F 32.8 °F 23.0 °F 60% 29.89 in 10.0 mi NE 3.5 mph - N/A   Partly Cloudy
2:36 AM 33.8 °F - 24.8 °F 70% 29.88 in 10.0 mi Calm Calm - N/A   Mostly Cloudy
2:56 AM 33.8 °F - 26.6 °F 75% 29.88 in 7.0 mi Calm Calm - N/A   Overcast
3:16 AM 33.8 °F 30.8 °F 21.2 °F 60% 29.87 in 7.0 mi ENE 3.5 mph - N/A   Overcast
3:36 AM 32.0 °F - 21.2 °F 64% 29.87 in 4.0 mi Calm Calm - N/A   Overcast
3:56 AM 33.8 °F - 24.8 °F 70% 29.88 in 5.0 mi Calm Calm - N/A   Overcast
4:16 AM 30.2 °F - 21.2 °F 69% 29.87 in 3.0 mi Calm Calm - N/A   Overcast
4:36 AM 30.2 °F 26.7 °F 21.2 °F 69% 29.87 in 3.0 mi ENE 3.5 mph - N/A   Overcast
4:56 AM 32.0 °F - 23.0 °F 69% 29.87 in 3.0 mi Calm Calm - N/A   Overcast
5:16 AM 30.2 °F 26.7 °F 21.2 °F 69% 29.87 in 2.5 mi ENE 3.5 mph - N/A   Overcast
5:36 AM 30.2 °F 26.7 °F 23.0 °F 75% 29.87 in 2.5 mi ENE 3.5 mph - N/A   Overcast
5:56 AM 30.2 °F 26.7 °F 23.0 °F 75% 29.87 in 1.8 mi ENE 3.5 mph - N/A   Overcast
6:36 AM 30.2 °F - 21.2 °F 69% 29.87 in 1.2 mi Calm Calm - N/A   Overcast
6:56 AM 30.2 °F 26.7 °F 24.8 °F 80% 29.87 in 1.5 mi ENE 3.5 mph - N/A   Overcast
7:36 AM 33.8 °F 30.8 °F 24.8 °F 70% 29.87 in 1.5 mi East 3.5 mph - N/A   Overcast
7:56 AM 35.6 °F 32.8 °F 24.8 °F 65% 29.87 in 1.8 mi ENE 3.5 mph - N/A   Overcast
8:16 AM 35.6 °F 32.8 °F 24.8 °F 65% 29.87 in 2.0 mi East 3.5 mph - N/A   Overcast
8:36 AM 35.6 °F 31.7 °F 24.8 °F 65% 29.87 in 2.5 mi East 4.6 mph - N/A   Overcast
8:56 AM 35.6 °F 31.7 °F 24.8 °F 65% 29.86 in 2.5 mi East 4.6 mph - N/A   Overcast
9:16 AM 37.4 °F 33.8 °F 24.8 °F 60% 29.86 in 3.0 mi East 4.6 mph - N/A   Overcast
9:36 AM 37.4 °F 34.9 °F 24.8 °F 60% 29.86 in 3.0 mi East 3.5 mph - N/A   Overcast
10:16 AM 42.8 °F 41.1 °F 26.6 °F 53% 29.86 in 3.0 mi East 3.5 mph - N/A   Overcast
10:36 AM 48.2 °F - 26.6 °F 43% 29.85 in 1.0 mi Calm Calm - N/A   Overcast
10:56 AM 51.8 °F - 28.4 °F 41% 29.85 in 1.8 mi East 5.8 mph - N/A   Overcast
11:16 AM 53.6 °F - 28.4 °F 38% 29.84 in 2.5 mi ESE 3.5 mph - N/A   Overcast
11:36 AM 55.4 °F - 30.2 °F 38% 29.84 in 5.0 mi NE 5.8 mph - N/A   Scattered Clouds
11:56 AM 57.2 °F - 30.2 °F 36% 29.83 in 5.0 mi ENE 3.5 mph - N/A   Partly Cloudy
12:16 PM 57.2 °F - 28.4 °F 33% 29.83 in 10.0 mi NE 4.6 mph - N/A   Clear
12:36 PM 57.2 °F - 28.4 °F 33% 29.83 in 10.0 mi NE 8.1 mph - N/A   Mostly Cloudy
12:56 PM 57.2 °F - 28.4 °F 33% 29.83 in 10.0 mi NNE 6.9 mph - N/A   Overcast
1:16 PM 57.2 °F - 26.6 °F 31% 29.83 in 10.0 mi North 6.9 mph - N/A   Overcast
1:36 PM 57.2 °F - 28.4 °F 33% 29.82 in 10.0 mi NNW 4.6 mph - N/A   Overcast
1:56 PM 57.2 °F - 28.4 °F 33% 29.83 in 10.0 mi North 4.6 mph - N/A   Overcast
2:16 PM 59.0 °F - 28.4 °F 31% 29.83 in 10.0 mi North 6.9 mph - N/A   Overcast
2:36 PM 59.0 °F - 26.6 °F 29% 29.82 in 10.0 mi North 5.8 mph - N/A   Overcast
2:56 PM 59.0 °F - 26.6 °F 29% 29.82 in 10.0 mi North 6.9 mph - N/A   Overcast
3:16 PM 59.0 °F - 26.6 °F 29% 29.82 in 10.0 mi North 6.9 mph - N/A   Mostly Cloudy
3:36 PM 59.0 °F - 26.6 °F 29% 29.82 in 10.0 mi NNW 10.4 mph - N/A   Mostly Cloudy
3:56 PM 57.2 °F - 26.6 °F 31% 29.82 in 10.0 mi NNW 6.9 mph - N/A   Overcast
4:16 PM 57.2 °F - 26.6 °F 31% 29.82 in 10.0 mi NNW 6.9 mph - N/A   Overcast
4:36 PM 57.2 °F - 26.6 °F 31% 29.82 in 10.0 mi NNW 4.6 mph - N/A   Overcast
4:56 PM 57.2 °F - 24.8 °F 29% 29.82 in 10.0 mi NNW 3.5 mph - N/A   Overcast
5:16 PM 57.2 °F - 24.8 °F 29% 29.82 in 10.0 mi North 3.5 mph - N/A   Overcast
5:36 PM 55.4 °F - 24.8 °F 31% 29.82 in 10.0 mi Calm Calm - N/A   Overcast
5:56 PM 55.4 °F - 24.8 °F 31% 29.82 in 10.0 mi Calm Calm - N/A   Overcast
6:16 PM 55.4 °F - 24.8 °F 31% 29.81 in 10.0 mi Calm Calm - N/A   Overcast
6:36 PM 53.6 °F - 26.6 °F 35% 29.81 in 10.0 mi Calm Calm - N/A   Overcast
6:56 PM 51.8 °F - 28.4 °F 41% 29.81 in 10.0 mi Calm Calm - N/A   Overcast
7:16 PM 51.8 °F - 28.4 °F 41% 29.81 in 10.0 mi Calm Calm - N/A   Overcast
7:36 PM 51.8 °F - 28.4 °F 41% 29.81 in 10.0 mi Calm Calm - N/A   Overcast
7:56 PM 50.0 °F - 28.4 °F 43% 29.81 in 10.0 mi Calm Calm - N/A   Overcast
8:16 PM 50.0 °F - 30.2 °F 47% 29.81 in 10.0 mi Calm Calm - N/A   Overcast
8:36 PM 50.0 °F - 28.4 °F 43% 29.81 in 10.0 mi Calm Calm - N/A   Overcast
8:56 PM 48.2 °F - 30.2 °F 50% 29.81 in 10.0 mi Calm Calm - N/A   Overcast
9:16 PM 48.2 °F - 32.0 °F 54% 29.81 in 10.0 mi West 4.6 mph - N/A   Overcast
9:36 PM 48.2 °F - 32.0 °F 54% 29.82 in 10.0 mi Calm Calm - N/A   Overcast
9:56 PM 48.2 °F - 32.0 °F 54% 29.82 in 10.0 mi West 3.5 mph - N/A   Overcast
10:16 PM 48.2 °F - 32.0 °F 54% 29.82 in 10.0 mi Calm Calm - N/A   Overcast
10:36 PM 46.4 °F - 32.0 °F 57% 29.82 in 10.0 mi Calm Calm - N/A   Overcast
10:56 PM 44.6 °F 43.1 °F 30.2 °F 57% 29.81 in 10.0 mi South 3.5 mph - N/A   Overcast
11:16 PM 44.6 °F - 32.0 °F 61% 29.82 in 10.0 mi Calm Calm - N/A   Overcast
11:36 PM 42.8 °F - 30.2 °F 61% 29.82 in 10.0 mi Calm Calm - N/A   Overcast
11:56 PM 42.8 °F - 30.2 °F 61% 29.82 in 10.0 mi Calm Calm - N/A   Overcast